| time (UTC) | temp C | wind direction | speed KPH | gust KPH | rain 1hr cm | rain 24hr cm | rain mn cm | humidity % | barometer mb |
| 20260906093636 | 24 | 150 | 1.6 | 9.7 | 0.00 | 0.00 | 0.00 | 86 | 980.8 |
| 20260906092735 | 24 | 159 | 8.0 | 8.0 | 0.00 | 0.00 | 0.00 | 85 | 980.3 |
| 20260906091835 | 24 | 350 | 1.6 | 6.4 | 0.00 | 0.00 | 0.00 | 84 | 979.6 |
| 20260906090935 | 24 | 320 | 4.8 | 6.4 | 0.00 | 0.00 | 0.00 | 84 | 980.0 |
| 20260906090035 | 24 | 315 | 1.6 | 8.0 | 0.00 | 0.00 | 0.00 | 85 | 979.8 |
| 20260906085135 | 24 | 309 | 3.2 | 6.4 | 0.00 | 0.00 | 0.00 | 84 | 979.8 |
| 20260906084236 | 24 | 304 | 4.8 | 8.0 | 0.00 | 0.00 | 0.00 | 84 | 979.9 |
| 20260906083336 | 24 | 324 | 8.0 | 8.0 | 0.00 | 0.00 | 0.00 | 84 | 979.7 |
| 20260906082435 | 24 | 318 | 6.4 | 8.0 | 0.00 | 0.00 | 0.00 | 84 | 979.4 |
| 20260906081535 | 24 | 336 | 4.8 | 6.4 | 0.00 | 0.00 | 0.00 | 83 | 979.3 |
| 20260906080635 | 24 | 354 | 4.8 | 6.4 | 0.00 | 0.00 | 0.00 | 83 | 979.3 |
| 20260906075735 | 24 | 323 | 6.4 | 6.4 | 0.00 | 0.00 | 0.00 | 83 | 979.6 |
| 20260906074835 | 24 | 327 | 4.8 | 8.0 | 0.00 | 0.00 | 0.00 | 83 | 979.4 |
| 20260906073935 | 25 | 323 | 4.8 | 6.4 | 0.00 | 0.00 | 0.00 | 81 | 979.5 |
| 20260906073035 | 25 | 319 | 6.4 | 6.4 | 0.00 | 0.00 | 0.00 | 81 | 979.4 |
| 20260906071235 | 25 | 312 | 4.8 | 14.5 | 0.00 | 0.00 | 0.00 | 83 | 979.8 |
| 20260906065435 | 24 | 306 | 4.8 | 29.0 | 0.00 | 0.00 | 0.00 | 93 | 979.8 |
| 20260906064535 | 23 | 322 | 8.0 | 11.3 | 0.00 | 0.00 | 0.00 | 93 | 979.5 |
| 20260906063635 | 23 | 346 | 1.6 | 3.2 | 0.00 | 0.00 | 0.00 | 93 | 979.0 |
| 20260906062735 | 23 | 1 | 1.6 | 3.2 | 0.00 | 0.00 | 0.00 | 93 | 979.0 |
| 20260906061835 | 23 | 1 | 0.0 | 1.6 | 0.00 | 0.00 | 0.00 | 93 | 978.9 |
| 20260906060936 | 24 | 1 | 1.6 | 3.2 | 0.00 | 0.00 | 0.00 | 93 | 979.1 |
| 20260906060035 | 23 | 1 | 1.6 | 3.2 | 0.00 | 0.00 | 0.00 | 93 | 978.8 |
| 20260906054236 | 23 | 90 | 0.0 | 1.6 | 0.00 | 0.00 | 0.00 | 93 | 978.8 |
| 20260906052435 | 23 | 45 | 1.6 | 3.2 | 0.00 | 0.00 | 0.00 | 92 | 978.9 |
| 20260906050635 | 24 | 0 | 0.0 | 0.0 | 0.00 | 0.00 | 0.00 | 92 | 978.9 |
| 20260906045735 | 24 | 0 | 0.0 | 0.0 | 0.00 | 0.00 | 0.00 | 92 | 979.0 |
| 20260906044835 | 24 | 45 | 0.0 | 1.6 | 0.00 | 0.00 | 0.00 | 91 | 979.0 |
| 20260906043935 | 24 | 0 | 0.0 | 0.0 | 0.00 | 0.00 | 0.00 | 91 | 979.2 |
| 20260906043036 | 24 | 0 | 0.0 | 0.0 | 0.00 | 0.00 | 0.00 | 91 | 979.4 |
| 20260906042135 | 24 | 0 | 0.0 | 0.0 | 0.00 | 0.00 | 0.00 | 91 | 979.3 |
| 20260906041235 | 25 | 0 | 0.0 | 0.0 | 0.00 | 0.00 | 0.00 | 90 | 979.5 |
| 20260906040335 | 25 | 0 | 0.0 | 0.0 | 0.00 | 0.00 | 0.00 | 90 | 979.4 |
| 20260906035435 | 25 | 0 | 0.0 | 0.0 | 0.00 | 0.00 | 0.00 | 89 | 979.3 |
| 20260906034536 | 25 | 0 | 0.0 | 0.0 | 0.00 | 0.00 | 0.00 | 89 | 979.3 |
| 20260906033635 | 25 | 1 | 0.0 | 3.2 | 0.00 | 0.00 | 0.00 | 89 | 979.4 |
| 20260906032735 | 25 | 1 | 1.6 | 3.2 | 0.00 | 0.00 | 0.00 | 88 | 979.4 |
| 20260906031835 | 25 | 1 | 0.0 | 1.6 | 0.00 | 0.00 | 0.00 | 88 | 979.4 |
| 20260906030935 | 25 | 1 | 0.0 | 3.2 | 0.00 | 0.00 | 0.00 | 88 | 979.2 |
| 20260906030035 | 25 | 344 | 0.0 | 6.4 | 0.00 | 0.00 | 0.00 | 88 | 979.3 |
| 20260906025135 | 25 | 135 | 0.0 | 1.6 | 0.00 | 0.00 | 0.00 | 87 | 978.8 |
| 20260906024235 | 25 | 135 | 0.0 | 1.6 | 0.00 | 0.00 | 0.00 | 86 | 978.7 |
| 20260906023335 | 25 | 0 | 0.0 | 0.0 | 0.00 | 0.00 | 0.00 | 85 | 978.6 |
| 20260906022435 | 25 | 0 | 0.0 | 0.0 | 0.00 | 0.00 | 0.00 | 84 | 978.6 |
| 20260906021535 | 26 | 0 | 0.0 | 0.0 | 0.00 | 0.00 | 0.00 | 82 | 978.5 |
| 20260906020634 | 26 | 0 | 0.0 | 0.0 | 0.00 | 0.00 | 0.00 | 82 | 978.4 |
| 20260906015736 | 27 | 135 | 0.0 | 3.2 | 0.00 | 0.00 | 0.00 | 81 | 978.2 |
| 20260906014834 | 27 | 135 | 0.0 | 1.6 | 0.00 | 0.00 | 0.00 | 81 | 978.3 |
| 20260906013935 | 27 | 135 | 0.0 | 1.6 | 0.00 | 0.00 | 0.00 | 80 | 978.2 |
| 20260906013035 | 27 | 135 | 0.0 | 3.2 | 0.00 | 0.00 | 0.00 | 80 | 978.1 |
| 20260906012135 | 27 | 128 | 1.6 | 3.2 | 0.00 | 0.00 | 0.00 | 78 | 978.1 |
| 20260906011235 | 28 | 11 | 1.6 | 3.2 | 0.00 | 0.00 | 0.00 | 76 | 978.2 |
| 20260906010334 | 28 | 1 | 1.6 | 1.6 | 0.00 | 0.00 | 0.00 | 75 | 978.0 |
| 20260906005435 | 28 | 1 | 0.0 | 1.6 | 0.00 | 0.00 | 0.00 | 74 | 978.0 |
| 20260906004535 | 28 | 1 | 0.0 | 1.6 | 0.00 | 0.00 | 0.00 | 71 | 977.9 |
| 20260906003635 | 29 | 1 | 0.0 | 1.6 | 0.00 | 0.00 | 0.00 | 70 | 977.8 |
| 20260906002735 | 30 | 23 | 0.0 | 3.2 | 0.00 | 0.00 | 0.00 | 66 | 977.9 |
| 20260906001835 | 30 | 45 | 0.0 | 1.6 | 0.00 | 0.00 | 0.00 | 63 | 977.8 |
| 20260906000935 | 31 | 45 | 0.0 | 1.6 | 0.00 | 0.00 | 0.00 | 62 | 977.9 |
| 20260906000036 | 32 | 0 | 0.0 | 0.0 | 0.00 | 0.00 | 0.00 | 58 | 977.8 |
| 20260905232436 | 34 | 37 | 0.0 | 3.2 | 0.00 | 0.00 | 0.00 | 51 | 978.2 |
| 20260905230635 | 35 | 131 | 1.6 | 4.8 | 0.00 | 0.00 | 0.00 | 47 | 977.9 |
| 20260905224834 | 35 | 146 | 1.6 | 6.4 | 0.00 | 0.00 | 0.00 | 45 | 978.0 |
| 20260905223935 | 35 | 136 | 4.8 | 6.4 | 0.00 | 0.00 | 0.00 | 47 | 977.8 |
| 20260905223034 | 35 | 140 | 3.2 | 6.4 | 0.00 | 0.00 | 0.00 | 46 | 978.0 |
| 20260905222135 | 36 | 116 | 1.6 | 4.8 | 0.00 | 0.00 | 0.00 | 44 | 978.0 |
| 20260905221234 | 36 | 124 | 3.2 | 4.8 | 0.00 | 0.00 | 0.00 | 43 | 978.0 |
| 20260905220335 | 36 | 150 | 3.2 | 6.4 | 0.00 | 0.00 | 0.00 | 40 | 978.0 |
| 20260905215434 | 36 | 121 | 0.0 | 9.7 | 0.00 | 0.00 | 0.00 | 43 | 978.2 |
| 20260905213634 | 36 | 132 | 3.2 | 6.4 | 0.00 | 0.00 | 0.00 | 44 | 978.1 |
| 20260905212734 | 36 | 108 | 4.8 | 6.4 | 0.00 | 0.00 | 0.00 | 43 | 978.2 |
| 20260905211834 | 36 | 142 | 1.6 | 9.7 | 0.00 | 0.00 | 0.00 | 45 | 978.2 |
| 20260905210934 | 36 | 152 | 6.4 | 9.7 | 0.00 | 0.00 | 0.00 | 48 | 978.4 |
| 20260905210036 | 36 | 277 | 6.4 | 9.7 | 0.00 | 0.00 | 0.00 | 47 | 978.3 |
| 20260905204234 | 35 | 142 | 1.6 | 6.4 | 0.00 | 0.00 | 0.00 | 46 | 978.4 |
| 20260905203334 | 36 | 152 | 3.2 | 6.4 | 0.00 | 0.00 | 0.00 | 42 | 978.6 |
| 20260905202434 | 36 | 356 | 3.2 | 11.3 | 0.00 | 0.00 | 0.00 | 43 | 978.5 |
| 20260905201536 | 36 | 358 | 3.2 | 6.4 | 0.00 | 0.00 | 0.00 | 43 | 978.7 |
| 20260905200634 | 36 | 272 | 1.6 | 8.0 | 0.00 | 0.00 | 0.00 | 42 | 979.0 |
| 20260905195735 | 35 | 22 | 4.8 | 6.4 | 0.00 | 0.00 | 0.00 | 50 | 979.1 |
| 20260905194834 | 35 | 355 | 3.2 | 12.9 | 0.00 | 0.00 | 0.00 | 49 | 979.1 |
| 20260905193934 | 36 | 356 | 12.9 | 12.9 | 0.00 | 0.00 | 0.00 | 41 | 979.2 |
| 20260905193035 | 36 | 86 | 3.2 | 8.0 | 0.00 | 0.00 | 0.00 | 41 | 979.3 |
| 20260905192134 | 36 | 136 | 3.2 | 8.0 | 0.00 | 0.00 | 0.00 | 42 | 979.7 |
| 20260905191234 | 36 | 304 | 4.8 | 8.0 | 0.00 | 0.00 | 0.00 | 42 | 979.7 |
| 20260905190334 | 36 | 151 | 3.2 | 12.9 | 0.00 | 0.00 | 0.00 | 43 | 979.8 |
| 20260905185434 | 35 | 77 | 3.2 | 8.0 | 0.00 | 0.00 | 0.00 | 50 | 979.9 |
| 20260905184534 | 35 | 127 | 0.0 | 6.4 | 0.00 | 0.00 | 0.00 | 47 | 979.9 |
| 20260905183634 | 36 | 291 | 4.8 | 8.0 | 0.00 | 0.00 | 0.00 | 43 | 979.9 |
| 20260905181834 | 36 | 60 | 3.2 | 6.4 | 0.00 | 0.00 | 0.00 | 43 | 980.2 |
| 20260905180035 | 35 | 336 | 1.6 | 8.0 | 0.00 | 0.00 | 0.00 | 45 | 980.3 |
| 20260905175134 | 36 | 27 | 3.2 | 8.0 | 0.00 | 0.00 | 0.00 | 47 | 980.4 |
| 20260905174234 | 35 | 87 | 3.2 | 6.4 | 0.00 | 0.00 | 0.00 | 50 | 980.3 |
| 20260905173334 | 35 | 73 | 4.8 | 6.4 | 0.00 | 0.00 | 0.00 | 50 | 980.4 |
| 20260905172434 | 35 | 342 | 3.2 | 6.4 | 0.00 | 0.00 | 0.00 | 50 | 980.4 |
| 20260905171534 | 35 | 356 | 4.8 | 6.4 | 0.00 | 0.00 | 0.00 | 50 | 980.5 |
| 20260905165734 | 35 | 54 | 6.4 | 8.0 | 0.00 | 0.00 | 0.00 | 52 | 980.6 |
| 20260905164834 | 35 | 100 | 4.8 | 6.4 | 0.00 | 0.00 | 0.00 | 52 | 981.0 |
| 20260905163934 | 34 | 341 | 3.2 | 8.0 | 0.00 | 0.00 | 0.00 | 52 | 981.0 |